Regional Weather Roundup
Issued by NWS Newport/Morehead, NC

Current Version | Previous Version | Text Only | Print | Product List | Glossary On
Versions: 1 2 3 4 5 6 7 8 9 10 11 12 13 14 15 16 17 18 19 20 21 22 23 24 25 26 27 28 29 30 31 32 33 34 35 36 37 38 39 40 41 42 43 44 45 46 47 48 49 50
000 ASUS42 KMHX 220622 RWRMHX WEATHER ROUNDUP FOR EASTERN NORTH CAROLINA NATIONAL WEATHER SERVICE NEWPORT/MOREHEAD CITY NC 200 AM EDT TUE JUL 22 2014 NOTE: "FAIR" INDICATES FEW OR NO CLOUDS BELOW 12,000 FEET WITH NO SIGNIFICANT WEATHER AND/OR OBSTRUCTIONS TO VISIBILITY NCZ015>017-031-032-045>047-102-103-220700- NORTH COAST CITY SKY/WX TMP DP RH WIND PRES REMARKS EDENTON CLOUDY 72 71 96 NE3 30.14F ELIZABETH CITY CLOUDY 74 71 91 E3 30.16S KITTY HAWK CLOUDY 75 73 93 E3 30.14S MANTEO NOT AVBL $$ NCZ045>047-081-094-103-104-220700- CENTRAL COAST CITY SKY/WX TMP DP RH WIND PRES REMARKS FRISCO MOCLDY 75 74 96 E5 30.13F SWANQUARTER N/A 75 N/A N/A NE6 30.09S $$ NCZ095-097-098-100-101-220700- SOUTHERN COAST CITY SKY/WX TMP DP RH WIND PRES REMARKS BEAUFORT MOCLDY 75 73 93 CALM 30.10F CEDAR ISLAND N/A 79 N/A N/A N1 30.15S JACKSONVILLE MOCLDY 75 73 93 NE3 30.11F NEWPORT NOT AVBL PINEY ISLAND MOCLDY 78 76 93 NE5 30.11F WILMINGTON MOCLDY 75 73 93 N3 30.11S $$ NCZ011>013-027>030-043-044-078>080-089-090>093-098-220700- COASTAL PLAIN CITY SKY/WX TMP DP RH WIND PRES REMARKS AHOSKIE MOCLDY 71 69 94 CALM 30.16F CLINTON FOG 73 73 100 E3 30.13F VSB 3/4 ELIZABETHTOWN CLOUDY 73 73 100 CALM 30.12S FOG GOLDSBORO MOCLDY 74 74 99 E5 30.11F GREENVILLE CLOUDY 72 70 94 NE3 30.15F HAVELOCK MOCLDY 76 73 91 NW6 30.12F KENANSVILLE CLOUDY 73 72 95 CALM 30.13F FOG KINSTON CLOUDY 73 71 93 CALM 30.13F NEW BERN MOCLDY 75 73 94 NE3 30.13F RICHLANDS MOCLDY 73 72 94 NE3 30.12F ROANOKE RAPIDS NOT AVBL ROCKY MOUNT CLOUDY 73 70 90 NE3 30.14F WASHINGTON CLOUDY 71 70 96 CALM 30.14S WHITEVILLE FOG 72 71 96 NE3 30.10F VSB 3/4 $$ AMZ130-135-150-152-154-156-158-170-250-252-270-ANZ085-086-088-633-658-670-220700- MARINE OBSERVATIONS STATION/POSITION TIME TEMP WIND PRES WAVE SWELL AIR SEA DIR/SP/G HT/PER HT/PER (UTC) (F) (DEG/KT/KT) (MB) (FT/S) (FT/S) CHESAPEAKE LIGHT NOT AVBL BUOY 44014 0600 76 77 80/ 4/ 6 1020.8 3/ 8 3/ 8 DUCK 0600 75 74 70/ 7/ 7 1020.2 2E DUCK 0500 N/A 2/ 7 OREGON INLET 0600 76 77 60/ 5/ 8 1020.6 BUOY 44095 0600 77 N/A 3/ 7 20E OREGON INLET NOT AVBL HATTERAS CG 0600 76 81 70/ 5/ 6 1020.4 DIAMOND BUOY 0600 VRB 2/ 4 1020.0 4/ 6 3/ 6 CAPE LOOKOUT 0600 79 200/ 8/ 10 1019.1 BEAUFORT LAB 0600 75 80 350/ 5/ 5 1018.9 30 SE NEW RIVER 0600 80 81 190/ 10/ 12 1019.5 3/ 8 3/ 8 5 SE WRIGHTSVILL 0600 76 81 180/ 6/ 8 N/A BUOY 41002 0543 81 82 200/ 14/ 16 1021.2 4/ 7 3/ 7 BUOY 41004 0600 81 82 150/ 6/ 8 1017.6 3/ 8 2/ 8 $$

USA.gov is the U.S. government's official web portal to all federal, state and local government web resources and services.